Bow Sirius — LACQ7 — position and weather

sailwx.info

Track history (hours):
 
Tides and Currents Weather Stations Pressure Air Temp Water Temp Dewpoint Dewpoint Depression Visibility Wind Speed Wind Dir Waves Ship Positions

Bow Sirius

Last reported at 2018-Jun-22 18:59 UTC. Time now 2018-Jun-22 19:03 UTC.
Position N 29°13' W 094°41'.

Length 183 m; draft 11.6 m.

Type: Tanker. MMSI: 258910000.

Date/timePositionNaut miles runAvg speedWind from/ knotsBaromVisibWave heightAir tempDewpointWater temp
2018-Jun-22 18:59N 29°13' W 094°41'0 0.0
2018-Jun-22 18:29N 29°13' W 094°41'0 0.0
2018-Jun-22 17:59N 29°13' W 094°41'0 0.0
2018-Jun-22 17:29N 29°13' W 094°41'0 0.1
2018-Jun-22 16:59N 29°13' W 094°41'0 0.1
2018-Jun-22 16:26N 29°13' W 094°41'0 0.1
2018-Jun-22 15:59N 29°13' W 094°41'0 0.1
2018-Jun-22 15:29N 29°13' W 094°41'0 0.1
2018-Jun-22 14:59N 29°13' W 094°41'0 0.1
2018-Jun-22 14:29N 29°13' W 094°41'0 0.1
2018-Jun-22 13:59N 29°13' W 094°41'0 0.0
2018-Jun-22 13:29N 29°13' W 094°41'0 0.1
2018-Jun-22 12:56N 29°13' W 094°41'0 0.1
2018-Jun-22 12:29N 29°13' W 094°41'0 0.0
2018-Jun-22 11:56N 29°13' W 094°41'0 0.1
2018-Jun-22 11:29N 29°13' W 094°41'0 0.0
2018-Jun-22 10:58N 29°13' W 094°41'0 0.0
2018-Jun-22 10:28N 29°13' W 094°41'0 0.0
2018-Jun-22 09:58N 29°13' W 094°41'0 0.0
2018-Jun-22 09:25N 29°13' W 094°41'0 0.0
2018-Jun-22 08:55N 29°13' W 094°41'0 0.0
2018-Jun-22 08:28N 29°13' W 094°41'0 0.0
2018-Jun-22 07:58N 29°13' W 094°41'0 0.0
2018-Jun-22 07:28N 29°13' W 094°41'0 0.0
2018-Jun-22 06:58N 29°13' W 094°41'0 0.0
2018-Jun-22 06:28N 29°13' W 094°41'0 0.0
2018-Jun-22 05:58N 29°13' W 094°41'0 0.0
2018-Jun-22 05:28N 29°13' W 094°41'0 0.0
2018-Jun-22 04:55N 29°13' W 094°41'0 0.0
2018-Jun-22 04:28N 29°13' W 094°41'0 0.0
2018-Jun-22 03:58N 29°13' W 094°41'0 0.0
2018-Jun-22 03:28N 29°13' W 094°41'0 0.0
2018-Jun-22 02:58N 29°13' W 094°41'0 0.0
2018-Jun-22 02:28N 29°13' W 094°41'0 0.0
2018-Jun-22 01:55N 29°13' W 094°41'0 0.0
2018-Jun-22 01:22N 29°13' W 094°41'0 0.0
2018-Jun-22 00:58N 29°13' W 094°41'0 0.0
2018-Jun-22 00:25N 29°13' W 094°41'0 0.0
2018-Jun-21 23:58N 29°13' W 094°41'0 0.0
2018-Jun-21 23:28N 29°13' W 094°41'0 0.0
2018-Jun-21 22:55N 29°13' W 094°41'0 0.0
2018-Jun-21 22:28N 29°13' W 094°41'0 0.0
2018-Jun-21 21:58N 29°13' W 094°41'0 0.0
2018-Jun-21 21:28N 29°13' W 094°41'0 0.0
2018-Jun-21 20:58N 29°13' W 094°41'0 0.0
2018-Jun-21 20:28N 29°13' W 094°41'0 0.0
2018-Jun-21 19:58N 29°13' W 094°41'0 0.0
2018-Jun-21 19:28N 29°13' W 094°41'0 0.0
2018-Jun-21 18:55N 29°13' W 094°41'0 0.0
2018-Jun-21 18:28N 29°13' W 094°41'0 0.0
2018-Jun-21 17:49N 29°13' W 094°41'0 0.0
2018-Jun-21 17:28N 29°13' W 094°41'0 0.0
2018-Jun-21 16:58N 29°13' W 094°41'0 0.0
2018-Jun-21 16:28N 29°13' W 094°41'0 0.0
2018-Jun-21 15:58N 29°13' W 094°41'0 0.0
2018-Jun-21 15:28N 29°13' W 094°41'0 0.0
2018-Jun-21 14:58N 29°13' W 094°41'0 0.0
2018-Jun-21 14:28N 29°13' W 094°41'0 0.0
2018-Jun-21 13:58N 29°13' W 094°41'0 0.0
2018-Jun-21 13:28N 29°13' W 094°41'0 0.0
2018-Jun-21 12:55N 29°13' W 094°41'0 0.0
2018-Jun-21 12:28N 29°13' W 094°41'0 0.0
2018-Jun-21 11:58N 29°13' W 094°41'0 1.0
2018-Jun-21 11:30N 29°13' W 094°40'3 6.9
2018-Jun-21 11:00N 29°15' W 094°37'3 6.8
2018-Jun-21 10:30N 29°19' W 094°38'611.7
2018-Jun-21 10:00N 29°21' W 094°45'611.4
2018-Jun-21 09:29N 29°25' W 094°49'612.4
2018-Jun-21 08:59N 29°30' W 094°53'612.1
2018-Jun-21 08:30N 29°35' W 094°56'5 9.4
2018-Jun-21 08:00N 29°39' W 094°58'5 8.5
2018-Jun-21 07:26N 29°44' W 095°01'4 7.3
2018-Jun-21 06:56N 29°46' W 095°05'2 5.5
2018-Jun-21 06:29N 29°44' W 095°07'1 1.2
2018-Jun-21 05:58N 29°44' W 095°08'6 0.1
2018-Jun-19 02:49N 29°43' W 095°01'2 7.7
2018-Jun-19 02:30N 29°41' W 094°59'510.0
2018-Jun-19 02:00N 29°37' W 094°57'611.3
2018-Jun-19 01:29N 29°32' W 094°54'511.4
2018-Jun-19 01:00N 29°27' W 094°51'611.2
2018-Jun-19 00:30N 29°22' W 094°48'510.8
2018-Jun-19 00:00N 29°21' W 094°42'611.6
2018-Jun-18 23:29N 29°18' W 094°36'3 4.5
2018-Jun-18 22:43N 29°15' W 094°34'1 5.9
2018-Jun-18 22:30N 29°14' W 094°35'4 9.0
2018-Jun-18 22:00N 29°12' W 094°40'0 0.7
2018-Jun-18 21:30N 29°12' W 094°40'0 0.1
2018-Jun-18 21:00N 29°12' W 094°40'0 0.0
2018-Jun-18 20:30N 29°12' W 094°40'0 0.0
2018-Jun-18 20:00N 29°12' W 094°40'0 0.0
2018-Jun-18 19:27N 29°12' W 094°40'0 0.0
2018-Jun-18 18:54N 29°12' W 094°40'0 0.0
2018-Jun-18 18:30N 29°12' W 094°40'0 0.0
2018-Jun-18 18:00N 29°12' W 094°40'0 0.0
2018-Jun-18 17:30N 29°12' W 094°40'0 0.0
2018-Jun-18 16:54N 29°12' W 094°40'0 0.0
2018-Jun-18 16:30N 29°12' W 094°40'0 0.0
2018-Jun-18 16:00N 29°12' W 094°40'0 0.0
2018-Jun-18 15:27N 29°12' W 094°40'0 0.0
2018-Jun-18 14:54N 29°12' W 094°40'0 0.0
2018-Jun-18 14:27N 29°12' W 094°40'0 0.0
2018-Jun-18 14:00N 29°12' W 094°40'0 0.0
2018-Jun-18 13:30N 29°12' W 094°40'0 0.0
2018-Jun-18 12:57N 29°12' W 094°40'0 0.0
2018-Jun-18 12:30N 29°12' W 094°40'0 0.0
2018-Jun-18 12:00N 29°12' W 094°40'0 0.0
2018-Jun-18 11:24N 29°12' W 094°40'0 0.0
2018-Jun-18 11:00N 29°12' W 094°40'0 0.0
2018-Jun-18 10:30N 29°12' W 094°40'0 0.0
2018-Jun-18 10:00N 29°12' W 094°40'0 0.0
2018-Jun-18 09:27N 29°12' W 094°40'0 0.0
2018-Jun-18 08:57N 29°12' W 094°40'0 0.0
2018-Jun-18 08:24N 29°12' W 094°40'0 0.0
2018-Jun-18 07:57N 29°12' W 094°40'0 0.0
2018-Jun-18 07:30N 29°12' W 094°40'0 0.0
2018-Jun-18 07:00N 29°12' W 094°40'0 0.0
2018-Jun-18 06:30N 29°12' W 094°40'0 0.2
2018-Jun-18 06:00N 29°12' W 094°40'2 4.1
2018-Jun-18 05:30N 29°11' W 094°42'4 7.8
2018-Jun-18 05:00N 29°07' W 094°42'611.9
2018-Jun-18 04:30N 29°04' W 094°36'  
2018-Jun-13 19:32N 09°34' W 079°56'115.0
2018-Jun-13 19:30N 09°34' W 079°56'714.0
2018-Jun-13 19:00N 09°27' W 079°55'612.4
2018-Jun-13 18:30N 09°21' W 079°55'3 6.5
2018-Jun-13 18:00N 09°18' W 079°55'1 1.7
2018-Jun-13 17:27N 09°17' W 079°55'0 0.5
2018-Jun-13 16:57N 09°16' W 079°55'0 0.3
2018-Jun-13 16:25N 09°16' W 079°55'0 1.1
2018-Jun-13 16:00N 09°16' W 079°55'1 1.8
2018-Jun-13 15:29N 09°15' W 079°55'3 6.9
2018-Jun-13 15:00N 09°12' W 079°54'  
Track history (hours):
 
Tides and Currents Weather Stations Pressure Air Temp Water Temp Dewpoint Dewpoint Depression Visibility Wind Speed Wind Dir Waves Ship Positions

Bow Sirius

Last reported at 2018-Jun-22 18:59 UTC. Time now 2018-Jun-22 19:03 UTC.
Position N 29°13' W 094°41'.

Length 183 m; draft 11.6 m.

Type: Tanker. MMSI: 258910000.

Date/timePositionNaut miles runAvg speedWind from/ knotsBaromVisibWave heightAir tempDewpointWater temp
2018-Jun-22 18:59N 29°13' W 094°41'0 0.0
2018-Jun-22 18:29N 29°13' W 094°41'0 0.0
2018-Jun-22 17:59N 29°13' W 094°41'0 0.0
2018-Jun-22 17:29N 29°13' W 094°41'0 0.1
2018-Jun-22 16:59N 29°13' W 094°41'0 0.1
2018-Jun-22 16:26N 29°13' W 094°41'0 0.1
2018-Jun-22 15:59N 29°13' W 094°41'0 0.1
2018-Jun-22 15:29N 29°13' W 094°41'0 0.1
2018-Jun-22 14:59N 29°13' W 094°41'0 0.1
2018-Jun-22 14:29N 29°13' W 094°41'0 0.1
2018-Jun-22 13:59N 29°13' W 094°41'0 0.0
2018-Jun-22 13:29N 29°13' W 094°41'0 0.1
2018-Jun-22 12:56N 29°13' W 094°41'0 0.1
2018-Jun-22 12:29N 29°13' W 094°41'0 0.0
2018-Jun-22 11:56N 29°13' W 094°41'0 0.1
2018-Jun-22 11:29N 29°13' W 094°41'0 0.0
2018-Jun-22 10:58N 29°13' W 094°41'0 0.0
2018-Jun-22 10:28N 29°13' W 094°41'0 0.0
2018-Jun-22 09:58N 29°13' W 094°41'0 0.0
2018-Jun-22 09:25N 29°13' W 094°41'0 0.0
2018-Jun-22 08:55N 29°13' W 094°41'0 0.0
2018-Jun-22 08:28N 29°13' W 094°41'0 0.0
2018-Jun-22 07:58N 29°13' W 094°41'0 0.0
2018-Jun-22 07:28N 29°13' W 094°41'0 0.0
2018-Jun-22 06:58N 29°13' W 094°41'0 0.0
2018-Jun-22 06:28N 29°13' W 094°41'0 0.0
2018-Jun-22 05:58N 29°13' W 094°41'0 0.0
2018-Jun-22 05:28N 29°13' W 094°41'0 0.0
2018-Jun-22 04:55N 29°13' W 094°41'0 0.0
2018-Jun-22 04:28N 29°13' W 094°41'0 0.0
2018-Jun-22 03:58N 29°13' W 094°41'0 0.0
2018-Jun-22 03:28N 29°13' W 094°41'0 0.0
2018-Jun-22 02:58N 29°13' W 094°41'0 0.0
2018-Jun-22 02:28N 29°13' W 094°41'0 0.0
2018-Jun-22 01:55N 29°13' W 094°41'0 0.0
2018-Jun-22 01:22N 29°13' W 094°41'0 0.0
2018-Jun-22 00:58N 29°13' W 094°41'0 0.0
2018-Jun-22 00:25N 29°13' W 094°41'0 0.0
2018-Jun-21 23:58N 29°13' W 094°41'0 0.0
2018-Jun-21 23:28N 29°13' W 094°41'0 0.0
2018-Jun-21 22:55N 29°13' W 094°41'0 0.0
2018-Jun-21 22:28N 29°13' W 094°41'0 0.0
2018-Jun-21 21:58N 29°13' W 094°41'0 0.0
2018-Jun-21 21:28N 29°13' W 094°41'0 0.0
2018-Jun-21 20:58N 29°13' W 094°41'0 0.0
2018-Jun-21 20:28N 29°13' W 094°41'0 0.0
2018-Jun-21 19:58N 29°13' W 094°41'0 0.0
2018-Jun-21 19:28N 29°13' W 094°41'0 0.0
2018-Jun-21 18:55N 29°13' W 094°41'0 0.0
2018-Jun-21 18:28N 29°13' W 094°41'0 0.0
2018-Jun-21 17:49N 29°13' W 094°41'0 0.0
2018-Jun-21 17:28N 29°13' W 094°41'0 0.0
2018-Jun-21 16:58N 29°13' W 094°41'0 0.0
2018-Jun-21 16:28N 29°13' W 094°41'0 0.0
2018-Jun-21 15:58N 29°13' W 094°41'0 0.0
2018-Jun-21 15:28N 29°13' W 094°41'0 0.0
2018-Jun-21 14:58N 29°13' W 094°41'0 0.0
2018-Jun-21 14:28N 29°13' W 094°41'0 0.0
2018-Jun-21 13:58N 29°13' W 094°41'0 0.0
2018-Jun-21 13:28N 29°13' W 094°41'0 0.0
2018-Jun-21 12:55N 29°13' W 094°41'0 0.0
2018-Jun-21 12:28N 29°13' W 094°41'0 0.0
2018-Jun-21 11:58N 29°13' W 094°41'0 1.0
2018-Jun-21 11:30N 29°13' W 094°40'3 6.9
2018-Jun-21 11:00N 29°15' W 094°37'3 6.8
2018-Jun-21 10:30N 29°19' W 094°38'611.7
2018-Jun-21 10:00N 29°21' W 094°45'611.4
2018-Jun-21 09:29N 29°25' W 094°49'612.4
2018-Jun-21 08:59N 29°30' W 094°53'612.1
2018-Jun-21 08:30N 29°35' W 094°56'5 9.4
2018-Jun-21 08:00N 29°39' W 094°58'5 8.5
2018-Jun-21 07:26N 29°44' W 095°01'4 7.3
2018-Jun-21 06:56N 29°46' W 095°05'2 5.5
2018-Jun-21 06:29N 29°44' W 095°07'1 1.2
2018-Jun-21 05:58N 29°44' W 095°08'6 0.1
2018-Jun-19 02:49N 29°43' W 095°01'2 7.7
2018-Jun-19 02:30N 29°41' W 094°59'510.0
2018-Jun-19 02:00N 29°37' W 094°57'611.3
2018-Jun-19 01:29N 29°32' W 094°54'511.4
2018-Jun-19 01:00N 29°27' W 094°51'611.2
2018-Jun-19 00:30N 29°22' W 094°48'510.8
2018-Jun-19 00:00N 29°21' W 094°42'611.6
2018-Jun-18 23:29N 29°18' W 094°36'3 4.5
2018-Jun-18 22:43N 29°15' W 094°34'1 5.9
2018-Jun-18 22:30N 29°14' W 094°35'4 9.0
2018-Jun-18 22:00N 29°12' W 094°40'0 0.7
2018-Jun-18 21:30N 29°12' W 094°40'0 0.1
2018-Jun-18 21:00N 29°12' W 094°40'0 0.0
2018-Jun-18 20:30N 29°12' W 094°40'0 0.0
2018-Jun-18 20:00N 29°12' W 094°40'0 0.0
2018-Jun-18 19:27N 29°12' W 094°40'0 0.0
2018-Jun-18 18:54N 29°12' W 094°40'0 0.0
2018-Jun-18 18:30N 29°12' W 094°40'0 0.0
2018-Jun-18 18:00N 29°12' W 094°40'0 0.0
2018-Jun-18 17:30N 29°12' W 094°40'0 0.0
2018-Jun-18 16:54N 29°12' W 094°40'0 0.0
2018-Jun-18 16:30N 29°12' W 094°40'0 0.0
2018-Jun-18 16:00N 29°12' W 094°40'0 0.0
2018-Jun-18 15:27N 29°12' W 094°40'0 0.0
2018-Jun-18 14:54N 29°12' W 094°40'0 0.0
2018-Jun-18 14:27N 29°12' W 094°40'0 0.0
2018-Jun-18 14:00N 29°12' W 094°40'0 0.0
2018-Jun-18 13:30N 29°12' W 094°40'0 0.0
2018-Jun-18 12:57N 29°12' W 094°40'0 0.0
2018-Jun-18 12:30N 29°12' W 094°40'0 0.0
2018-Jun-18 12:00N 29°12' W 094°40'0 0.0
2018-Jun-18 11:24N 29°12' W 094°40'0 0.0
2018-Jun-18 11:00N 29°12' W 094°40'0 0.0
2018-Jun-18 10:30N 29°12' W 094°40'0 0.0
2018-Jun-18 10:00N 29°12' W 094°40'0 0.0
2018-Jun-18 09:27N 29°12' W 094°40'0 0.0
2018-Jun-18 08:57N 29°12' W 094°40'0 0.0
2018-Jun-18 08:24N 29°12' W 094°40'0 0.0
2018-Jun-18 07:57N 29°12' W 094°40'0 0.0
2018-Jun-18 07:30N 29°12' W 094°40'0 0.0
2018-Jun-18 07:00N 29°12' W 094°40'0 0.0
2018-Jun-18 06:30N 29°12' W 094°40'0 0.2
2018-Jun-18 06:00N 29°12' W 094°40'2 4.1
2018-Jun-18 05:30N 29°11' W 094°42'4 7.8
2018-Jun-18 05:00N 29°07' W 094°42'611.9
2018-Jun-18 04:30N 29°04' W 094°36'  
2018-Jun-13 19:32N 09°34' W 079°56'115.0
2018-Jun-13 19:30N 09°34' W 079°56'714.0
2018-Jun-13 19:00N 09°27' W 079°55'612.4
2018-Jun-13 18:30N 09°21' W 079°55'3 6.5
2018-Jun-13 18:00N 09°18' W 079°55'1 1.7
2018-Jun-13 17:27N 09°17' W 079°55'0 0.5
2018-Jun-13 16:57N 09°16' W 079°55'0 0.3
2018-Jun-13 16:25N 09°16' W 079°55'0 1.1
2018-Jun-13 16:00N 09°16' W 079°55'1 1.8
2018-Jun-13 15:29N 09°15' W 079°55'3 6.9
2018-Jun-13 15:00N 09°12' W 079°54'  

Dump ship's entire track history